User: anonymous   Login
Location: Montr�al
(45.5000°N, 73.5830°W)
Time: 15:28:05
(UTC-05:00)
Language:

Cosmos 1151 Rocket - Orbit

View from above orbital plane
View from above orbital plane
View from above satellite
View from above satellite

Ground track
Ground track

The orbit data is extracted from the following two-line orbital elements,

1 11672U 80005B   14324.84936344  .00000803  00000-0  86080-4 0  1848
2 11672 082.5176 245.7169 0017005 189.0743 229.8672 14.87343941883747
Epoch (UTC): 20 November 2014 20:23:05
Eccentricity: 0.0017005
inclination: 82.5176°
perigee height: 594 km
apogee height: 618 km
right ascension of ascending node: 245.7169°
argument of perigee: 189.0743°
revolutions per day: 14.87343941
mean anomaly at epoch: 229.8672°
orbit number at epoch: 88374

The dashed part of the orbit path shows where the satellite is in the earth's shadow,  

DLR